COSMOS 1275 DEB

Satellite information

Favourite Embed

Satellite Type and Status

DEBRISIN ORBIT

Key statistics

Satellite COSMOS 1275 DEB at a glance.

Uptime

16264

Days in orbit

Revolutions

≈ 14.5

Per day

Orbit

LEO

Low Earth Orbit

Inclination

82.8

Latest

Satellite identification and parameters

Extended collection of information and parameters for COSMOS 1275 DEB.

Object identification

Identified? True

Debris? True

Object name: COSMOS 1275 DEB

International designator: 1981-053KQ

Object number (NORAD): 17621

Object ID (CCSDS): 17621

Country: COMMONWEALTH OF INDEPENDENT STATES (CIS)

Current information (Y/N): Y

RCS size: SMALL

Orbital parameters

Period: 99.626 minutes

Inclination: 82.7801 deg

SMA: 7118.849 km

Apoapsis: 762.489 km

Periapsis: 718.939 km

RAAN: 9.8949 deg

Eccentricy: 0.00305877

Argument of periapsis: 124.4177 deg

Mean anomaly: 235.9917 deg

Mean motion: 14.4540012 rev/day

Mean motion (dot): 0.0001129 rev/day2

B* drag term: 0.003183749 1/REarth

Two-line elements (TLE)

Creation date: Dec. 13, 2025, 4:32 a.m.

Reference frame: TEME

Reference center: EARTH

Epoch: Dec. 12, 2025, 7:23 p.m. UTC

TLE line 0: 0 COSMOS 1275 DEB

TLE line 1: 1 17621U 81053KQ 25346.80814017 .00011290 00000-0 31837-2 0 9990

TLE line 2: 2 17621 82.7801 9.8949 0030588 124.4177 235.9917 14.45400120 80829

Live tracking on map

Real-time ground track for satellite COSMOS 1275 DEB.

In-orbit conjunctions

A list of the most updated potential collisions computed for object COSMOS 1275 DEB.

Target Orbit TCA Probability of collision Miss distance Type
COSMOS 923 LEO 2025-05-28 08:09:54 0.000186162 693.0 (m) PAYLOAD
FENGYUN 1C DEB SSO 2024-08-21 23:44:39 0.0001474195 132.0 (m) DEBRIS
IRIDIUM 17 LEO 2024-07-05 12:11:06 0.000110438 940.0 (m) PAYLOAD
CZ-2D DEB SSO 2024-06-27 03:37:54 0.0001084283 76.0 (m) DEBRIS

Associated space launch

Navigation satellite providing location information for the Tsiklon-B navigation system

COSMOS 1275 DEB was lifted into orbit during the mission ‘Kosmos-3M | Parus 27’, on board a Kosmos-3M space rocket.

The launch took place on June 4, 1981, 3:41 p.m. from 132/2.

For more information about the launch, click the button.

Launch to space Kosmos-3M | Parus 27
Kosmos-3M | Parus 27

Agency: N/A

Status: Launch Successful

Launch date: June 4, 1981, 3:41 p.m. UTC

Rocket: Kosmos-3M

Launch pad: 132/2

Location: Plesetsk Cosmodrome, Russian Federation

...

Latest news about this satellite

There are no fresh news available about this satellite. Check back as we update our databases every day.


Newsletter sign-up

Weekly statistics, charts and insights to help you stay on top of the space industry.